Location: Miles
(41.4492°N, 81.6087°W)
Time: 18:42:52
(UTC+00:00)

Tiros 1 despin weight - Pass Details

Date: 17 September 2024
Orbit: 573 x 615 km, 48.2° (Epoch: 04 October)

Event Time Altitude Azimuth Distance (km) Brightness Sun altitude
Rises 12:11:34 0° 297° (WNW) 2,891 ? 10.8°
Reaches altitude 10° 12:13:56 10° 302° (WNW) 1,984 ? 11.2°
Maximum altitude 12:18:24 54° 20° (NNE) 752 ? 12.1°
Drops below altitude 10° 12:22:52 10° 98° (E) 1,972 ? 12.9°
Sets 12:25:12 0° 103° (ESE) 2,870 ? 13.3°
